Location: Flensburg
(54.6357°N, 9.5142°E)
Time: 20:56:25
(UTC+02:00)

ISS - Visible Passes

Search period start: 25 September 2020 00:00
Search period end: 05 October 2020 00:00
Orbit: 419 x 420 km, 51.6° (Epoch: 26 September)

Date Brightness Start Highest point End Pass type
(mag) Time Alt. Az. Time Alt. Az. Time Alt. Az.
25 Sep -3.4 20:58:06 10° WSW 21:01:25 51° S 21:02:08 41° SE visible
25 Sep -0.7 22:34:49 10° W 22:35:06 12° W 22:35:06 12° W visible
26 Sep -3.3 20:10:48 10° WSW 20:14:05 49° S 20:16:31 16° ESE visible
26 Sep -2.1 21:47:25 10° W 21:49:28 29° WSW 21:49:28 29° WSW visible
27 Sep -3.3 21:00:03 10° W 21:03:18 46° S 21:03:50 41° SSE visible
28 Sep -3.3 20:12:41 10° W 20:15:58 50° S 20:18:11 18° ESE visible
28 Sep -1.6 21:49:28 10° W 21:51:09 21° WSW 21:51:09 21° WSW visible
29 Sep -2.7 21:02:01 10° W 21:05:06 33° SSW 21:05:30 32° S visible
30 Sep -2.9 20:14:35 10° W 20:17:46 40° SSW 20:19:53 18° SE visible
30 Sep -1.0 21:51:50 10° WSW 21:52:51 14° WSW 21:52:51 14° WSW visible
01 Oct -3.0 19:27:09 10° W 19:30:25 46° S 19:33:40 10° ESE visible
01 Oct -1.9 21:04:07 10° W 21:06:45 21° SSW 21:07:15 20° SSW visible
02 Oct -2.1 20:16:33 10° W 20:19:28 27° SSW 20:21:42 14° SSE visible
03 Oct -2.4 19:29:02 10° W 19:32:07 33° SSW 19:35:12 10° SE visible
03 Oct -1.0 21:07:00 10° WSW 21:08:13 12° SW 21:09:10 11° SSW visible
04 Oct -1.2 20:18:50 10° WSW 20:20:59 16° SW 20:23:08 10° S visible
